Satellite: AUBIESAT Catalog number: 37854 Epoch time: 13143.12899980 Element set: 503 Inclination: 101.7193 deg RA of node: 345.9689 deg Eccentricity: 0.0235867 Arg of perigee: 098.0357 deg Mean anomaly: 017.4526 deg Mean motion: 14.84143976 rev/day Decay rate: 6.889e-05 rev/day^2 Epoch rev: 8474 Checksum: 356
Satellite: HRBE Catalog number: 37855 Epoch time: 13143.58468919 Element set: 502 Inclination: 101.7191 deg RA of node: 346.4160 deg Eccentricity: 0.0236819 Arg of perigee: 097.1474 deg Mean anomaly: 298.9871 deg Mean motion: 14.83818937 rev/day Decay rate: 6.744e-05 rev/day^2 Epoch rev: 8480 Checksum: 347
Satellite: RS-39 Catalog number: 38051 Epoch time: 13143.26576389 Element set: 466 Inclination: 051.6364 deg RA of node: 330.8187 deg Eccentricity: 0.0012656 Arg of perigee: 172.6604 deg Mean anomaly: 178.4068 deg Mean motion: 15.32038387 rev/day Decay rate: 2.0756e-04 rev/day^2 Epoch rev: 7395 Checksum: 330
Satellite: E-STAR Catalog number: 38079 Epoch time: 13143.72568152 Element set: 147 Inclination: 069.4767 deg RA of node: 241.3332 deg Eccentricity: 0.0623092 Arg of perigee: 169.6693 deg Mean anomaly: 337.3319 deg Mean motion: 14.44135290 rev/day Decay rate: 8.3062e-04 rev/day^2 Epoch rev: 6620 Checksum: 309
Satellite: GOLIAT Catalog number: 38085 Epoch time: 13143.66776423 Element set: 62 Inclination: 069.4778 deg RA of node: 243.4497 deg Eccentricity: 0.0633061 Arg of perigee: 170.7065 deg Mean anomaly: 190.6498 deg Mean motion: 14.42082240 rev/day Decay rate: 8.4199e-04 rev/day^2 Epoch rev: 6614 Checksum: 323
Satellite: HORYU-2 Catalog number: 38340 Epoch time: 13143.00243897 Element set: 502 Inclination: 098.2136 deg RA of node: 090.4386 deg Eccentricity: 0.0012207 Arg of perigee: 339.0780 deg Mean anomaly: 020.9911 deg Mean motion: 14.70898776 rev/day Decay rate: 1.950e-05 rev/day^2 Epoch rev: 5441 Checksum: 290
Satellite: RS-40 Catalog number: 38736 Epoch time: 13142.15230482 Element set: 276 Inclination: 082.4789 deg RA of node: 171.3556 deg Eccentricity: 0.0022192 Arg of perigee: 026.9953 deg Mean anomaly: 333.2267 deg Mean motion: 12.42867981 rev/day Decay rate: 1.0e-07 rev/day^2 Epoch rev: 3701 Checksum: 295
Satellite: PROITERES Catalog number: 38756 Epoch time: 13143.40913472 Element set: 803 Inclination: 098.2522 deg RA of node: 219.9945 deg Eccentricity: 0.0012421 Arg of perigee: 180.1147 deg Mean anomaly: 180.0062 deg Mean motion: 14.74203497 rev/day Decay rate: 1.002e-05 rev/day^2 Epoch rev: 3774 Checksum: 271
Satellite: RAIKO Catalog number: 38852 Epoch time: 13142.67189138 Element set: 232 Inclination: 051.6376 deg RA of node: 220.0098 deg Eccentricity: 0.0013506 Arg of perigee: 299.0133 deg Mean anomaly: 060.9512 deg Mean motion: 15.74442893 rev/day Decay rate: 1.11790e-03 rev/day^2 Epoch rev: 3584 Checksum: 293
Satellite: FITSAT 1 Catalog number: 38853 Epoch time: 13143.46169322 Element set: 234 Inclination: 051.6406 deg RA of node: 211.7941 deg Eccentricity: 0.0013733 Arg of perigee: 328.0661 deg Mean anomaly: 031.9509 deg Mean motion: 15.83935427 rev/day Decay rate: 2.22409e-03 rev/day^2 Epoch rev: 3607 Checksum: 287
Satellite: TechEdSat Catalog number: 38854 Epoch time: 13124.93253577 Element set: 290 Inclination: 051.6449 deg RA of node: 297.0261 deg Eccentricity: 0.0010505 Arg of perigee: 310.8629 deg Mean anomaly: 049.0629 deg Mean motion: 16.38844728 rev/day Decay rate: 1.1592855e-01 rev/day^2 Epoch rev: 3329 Checksum: 325
Satellite: F 1 Catalog number: 38855 Epoch time: 13129.77714356 Element set: 287 Inclination: 051.5085 deg RA of node: 272.4145 deg Eccentricity: 0.0008326 Arg of perigee: 194.2908 deg Mean anomaly: 166.5495 deg Mean motion: 16.49710473 rev/day Decay rate: 2.7424026e-01 rev/day^2 Epoch rev: 3394 Checksum: 332
Satellite: WeWish Catalog number: 38856 Epoch time: 13069.98095549 Element set: 248 Inclination: 051.6166 deg RA of node: 215.0521 deg Eccentricity: 0.0008325 Arg of perigee: 316.0438 deg Mean anomaly: 044.8765 deg Mean motion: 16.41348316 rev/day Decay rate: 1.6701328e-01 rev/day^2 Epoch rev: 2458 Checksum: 318
Satellite: OSSI-1 Catalog number: 39131 Epoch time: 13113.49391669 Element set: 3 Inclination: 064.8913 deg RA of node: 019.7169 deg Eccentricity: 0.0213781 Arg of perigee: 058.2074 deg Mean anomaly: 115.1737 deg Mean motion: 15.55484603 rev/day Decay rate: 1.71511e-03 rev/day^2 Epoch rev: 63 Checksum: 287
Satellite: BEESAT-3 Catalog number: 39134 Epoch time: 13143.74764981 Element set: 79 Inclination: 064.8777 deg RA of node: 285.3143 deg Eccentricity: 0.0016203 Arg of perigee: 207.1991 deg Mean anomaly: 152.8778 deg Mean motion: 15.00146903 rev/day Decay rate: 7.049e-05 rev/day^2 Epoch rev: 516 Checksum: 311
Satellite: BEESAT-2 Catalog number: 39136 Epoch time: 13143.74733404 Element set: 78 Inclination: 064.8781 deg RA of node: 285.3129 deg Eccentricity: 0.0016277 Arg of perigee: 207.6195 deg Mean anomaly: 152.4558 deg Mean motion: 15.00140530 rev/day Decay rate: 6.338e-05 rev/day^2 Epoch rev: 516 Checksum: 290
/EX